utc_time,unix_time,temp,cond,salinity,tds,chla_rfu,chla_ugl,bga_rfu,bga_ugl,odo,sat,nitrate_um,nitrogen_mg,stage,area,discharge,total_discharge
2019-10-01 00:00:01+00:00,1569888001,20.761,30708.68,20.97,21.72,,,,,12.76,161.13,18.276,0.25599,,,,
2019-10-01 00:20:01+00:00,1569889201,20.644,29596.99,20.19,20.98,,,,,12.92,162.06,18.183,0.25467,,,,
2019-10-01 00:40:01+00:00,1569890401,20.691,29940.91,20.43,21.21,,,,,12.8,160.89,11.378,0.15937,,,,
2019-10-01 01:00:01+00:00,1569891601,20.216,29871.53,20.6,21.37,,,,,12.28,153.07,8.242,0.11545,,,,
2019-10-01 01:20:01+00:00,1569892801,19.764,31614.87,22.17,22.83,,,,,13.07,163.05,-2.75,-0.03853,,,,
2019-10-01 01:40:01+00:00,1569894001,19.507,31339.49,22.09,22.76,,,,,12.77,158.45,0.732,0.01025,,,,
2019-10-01 02:00:01+00:00,1569895201,19.31,31387.25,22.23,22.89,,,,,11.52,142.57,2.766,0.03872,,,,
2019-10-01 02:20:01+00:00,1569896401,19.096,31208.05,22.2,22.86,,,,,10.05,123.79,7.287,0.10206,,,,
2019-10-01 02:40:02+00:00,1569897602,18.841,31182.21,22.32,22.97,,,,,8.65,106.11,8.292,0.11613,,,,
2019-10-01 03:00:02+00:00,1569898802,18.532,30981.5,22.33,22.98,,,,,7.47,91.18,10.958,0.15348,,,,
2019-10-01 03:20:01+00:00,1569900001,17.983,30500.31,22.24,22.89,,,,,7.84,94.57,11.38,0.15938,,,,
2019-10-01 03:40:02+00:00,1569901202,17.576,32060.9,23.73,24.28,,,,,7.83,94.51,11.081,0.15524,,,,
2019-10-01 04:00:01+00:00,1569902401,17.312,30272.16,22.42,23.06,,,,,7.59,90.5,9.696,0.1358,,,,
2019-10-01 04:20:02+00:00,1569903602,17.266,30271.66,22.44,23.09,,,,,7.4,88.17,,,,,,
2019-10-01 04:40:02+00:00,1569904802,17.192,30221.77,22.44,23.09,,,,,7.23,86.04,,,,,,
2019-10-01 05:00:02+00:00,1569906002,17.101,30240.71,22.51,23.15,,,,,6.97,82.83,,,,,,
2019-10-01 05:20:01+00:00,1569907201,16.978,29878.77,22.28,22.94,,,,,6.26,74.06,,,,,,
2019-10-01 05:40:02+00:00,1569908402,17.036,30498.97,22.76,23.38,,,,,5.24,62.21,16.076,0.22517,,,,
2019-10-01 06:00:02+00:00,1569909602,17.096,29130.74,21.61,22.3,,,,,2.45,28.89,14.25,0.1996,,,,
2019-10-01 06:20:02+00:00,1569910802,17.046,28347.71,20.99,21.73,,,,,1.2,14.16,13.554,0.18985,,,,
2019-10-01 06:40:02+00:00,1569912002,17.051,29887.68,22.25,22.9,,,,,1.19,14.04,13.122,0.1838,,,,
2019-10-01 07:00:01+00:00,1569913201,16.992,29772,22.19,22.85,,,,,2.12,25.05,11.889,0.16651,,,,
2019-10-01 07:20:01+00:00,1569914401,16.947,31423.63,23.57,24.14,,,,,2.34,27.87,12.59,0.17634,,,,
2019-10-01 07:40:01+00:00,1569915601,16.89,31394.87,23.58,24.15,,,,,2.17,25.82,10.371,0.14527,,,,
2019-10-01 08:00:01+00:00,1569916801,16.841,31329.98,23.56,24.12,,,,,2.25,26.72,10.601,0.14849,,,,
2019-10-01 08:20:01+00:00,1569918001,16.791,31884.24,24.05,24.58,,,,,2.35,27.97,10.331,0.14472,,,,
2019-10-01 08:40:01+00:00,1569919201,16.748,29324.62,21.95,22.63,,,,,1.94,22.83,9.974,0.13969,,,,
2019-10-01 09:00:02+00:00,1569920402,16.725,28575.51,21.35,22.06,,,,,2.18,25.56,9.918,0.13892,,,,
2019-10-01 09:20:02+00:00,1569921602,16.628,28611.05,21.43,22.14,,,,,2.06,24.08,11.408,0.15983,,,,
2019-10-01 09:40:02+00:00,1569922802,16.538,28372.94,21.28,22,,,,,1.96,22.9,10.333,0.14473,,,,
2019-10-01 10:00:02+00:00,1569924002,16.462,28568.11,21.48,22.19,,,,,1.19,13.87,10.817,0.15151,,,,
2019-10-01 10:20:02+00:00,1569925202,16.394,28970.52,21.85,22.53,,,,,0.9,10.45,9.928,0.13903,,,,
2019-10-01 10:40:01+00:00,1569926401,16.324,28613.75,21.59,22.29,,,,,0.57,6.61,10.501,0.14705,,,,
2019-10-01 11:00:01+00:00,1569927601,16.246,29160.55,22.09,22.76,,,,,0.82,9.61,9.569,0.13402,,,,
2019-10-01 11:20:01+00:00,1569928801,16.128,29275.73,22.25,22.91,,,,,0.65,7.58,8.69,0.12171,,,,
2019-10-01 11:40:01+00:00,1569930001,16.064,28602.66,21.72,22.42,,,,,0.88,10.16,8.728,0.12225,,,,
2019-10-01 12:00:01+00:00,1569931201,15.956,28470.8,21.67,22.37,,,,,0.79,9.17,8.078,0.11313,,,,
2019-10-01 12:20:01+00:00,1569932401,15.899,28292.19,21.55,22.26,,,,,0.55,6.36,8.601,0.12046,,,,
2019-10-01 12:40:01+00:00,1569933601,15.831,28623.98,21.87,22.56,,,,,0.6,6.93,8.181,0.11457,,,,
2019-10-01 13:00:01+00:00,1569934801,15.764,28763.26,22.02,22.7,,,,,0.51,5.85,8.392,0.11756,,,,
2019-10-01 13:20:01+00:00,1569936001,15.714,29338.31,22.54,23.18,,,,,0.54,6.26,8.819,0.1235,,,,
2019-10-01 13:40:02+00:00,1569937202,15.65,29106.46,22.38,23.03,,,,,0.53,6.1,9.11,0.12761,,,,
2019-10-01 14:00:02+00:00,1569938402,15.567,28842.9,22.2,22.87,,,,,0.77,8.88,8.545,0.11967,,,,
2019-10-01 14:20:02+00:00,1569939602,15.53,29576.39,22.85,23.47,,,,,0.49,5.7,8.565,0.11997,,,,
2019-10-01 14:40:02+00:00,1569940802,15.457,29338.05,22.68,23.32,,,,,0.6,6.93,8.599,0.12043,,,,
2019-10-01 15:00:01+00:00,1569942001,15.387,29411.63,22.79,23.42,,,,,0.55,6.3,8.858,0.12407,,,,
2019-10-01 15:20:01+00:00,1569943201,15.333,29253.03,22.68,23.32,,,,,0.51,5.8,8.649,0.12114,,,,
2019-10-01 15:40:01+00:00,1569944401,15.333,29257.36,22.69,23.32,,,,,0.49,5.58,7.929,0.11103,,,,
2019-10-01 16:00:01+00:00,1569945601,15.313,29323.1,22.75,23.39,,,,,0.48,5.53,7.63,0.10687,,,,
2019-10-01 16:20:01+00:00,1569946801,15.273,31177.32,24.37,24.89,,,,,0.65,7.53,7.949,0.11133,,,,
2019-10-01 16:40:01+00:00,1569948001,15.328,30996.96,24.18,24.71,,,,,0.64,7.4,8.686,0.12164,,,,
2019-10-01 17:00:01+00:00,1569949201,15.517,30520.49,23.66,24.23,,,,,0.49,5.64,8.624,0.12079,,,,
2019-10-01 17:20:01+00:00,1569950401,16.021,30216.94,23.1,23.71,,,,,1.7,19.82,9.091,0.12735,,,,
2019-10-01 17:40:01+00:00,1569951601,16.128,29815.99,22.71,23.33,,,,,2.6,30.37,8.665,0.12137,,,,
2019-10-01 18:00:02+00:00,1569952802,16.307,30114.02,22.85,23.47,,,,,4.8,56.22,9.248,0.1295,,,,
2019-10-01 18:20:02+00:00,1569954002,16.307,29564.86,22.39,23.04,,,,,5.51,64.34,10.424,0.14601,,,,
2019-10-01 18:40:02+00:00,1569955202,16.524,30494.4,23.05,23.65,,,,,5.88,69.26,13.253,0.18564,,,,
2019-10-01 19:00:02+00:00,1569956402,16.927,30875.93,23.13,23.73,,,,,7.06,83.91,14.839,0.20784,,,,
2019-10-01 19:20:02+00:00,1569957602,17.384,31909.31,23.72,24.27,,,,,8.12,97.66,16.796,0.23525,,,,
2019-10-01 19:40:01+00:00,1569958801,17.94,32180.45,23.62,24.18,,,,,9.21,111.92,16.053,0.22484,,,,
2019-10-01 20:00:01+00:00,1569960001,18.353,32496.7,23.64,24.19,,,,,10.09,123.63,15.983,0.22388,,,,
2019-10-01 20:20:01+00:00,1569961201,18.711,32725.01,23.61,24.18,,,,,11.08,136.72,15.485,0.21689,,,,
2019-10-01 20:40:01+00:00,1569962401,19.162,33038.56,23.61,24.17,,,,,11.68,145.34,14.959,0.20954,,,,
2019-10-01 21:00:01+00:00,1569963601,19.546,33924.62,24.09,24.62,,,,,12.22,153.54,14.754,0.20665,,,,
2019-10-01 21:20:01+00:00,1569964801,19.855,34966,24.72,25.2,,,,,12.44,157.87,15.293,0.21419,,,,
2019-10-01 21:40:01+00:00,1569966001,20.273,31959.24,22.17,22.84,,,,,13.28,167.25,15.447,0.21637,,,,
2019-10-01 22:00:02+00:00,1569967202,20.567,32494.34,22.42,23.08,,,,,13.74,174.33,15.718,0.22016,,,,
2019-10-01 22:20:01+00:00,1569968401,20.798,31612.51,21.63,22.34,,,,,13.58,172.2,15.922,0.22303,,,,
2019-10-01 22:40:02+00:00,1569969602,20.832,31922.09,21.85,22.54,,,,,13.79,175.27,15.697,0.21986,,,,
2019-10-01 23:00:02+00:00,1569970802,20.744,31484.65,21.56,22.28,,,,,13.75,174.12,18.042,0.2527,,,,
2019-10-01 23:20:02+00:00,1569972002,20.744,33495.41,23.09,23.7,,,,,13.66,174.51,17.062,0.23897,,,,
2019-10-01 23:40:02+00:00,1569973202,20.942,32778.11,22.44,23.1,,,,,13.68,174.82,18.312,0.25649,,,,
2019-10-02 00:00:01+00:00,1569974401,20.833,32924.56,22.61,23.25,,,,,14,178.69,17.437,0.24425,,,,
2019-10-02 00:20:02+00:00,1569975602,20.667,32703.47,22.53,23.18,,,,,13.99,178,18.174,0.25458,,,,
2019-10-02 00:40:02+00:00,1569976802,20.622,31413.13,21.57,22.28,,,,,13.05,164.92,19.345,0.27098,,,,
2019-10-02 01:00:02+00:00,1569978002,20.422,33070.34,22.94,23.56,,,,,13.14,166.71,17.75,0.24862,,,,
2019-10-02 01:20:02+00:00,1569979202,20.422,34227.93,23.83,24.38,,,,,10.41,132.76,17.853,0.25006,,,,
2019-10-02 01:40:01+00:00,1569980401,19.511,31517.43,22.22,22.89,,,,,11.91,147.99,8.577,0.12011,,,,
2019-10-02 02:00:01+00:00,1569981601,19.356,31808.89,22.54,23.17,,,,,12.12,150.42,8.167,0.1144,,,,
2019-10-02 02:20:01+00:00,1569982801,19.205,32216.88,22.94,23.55,,,,,11.58,143.65,9.132,0.12791,,,,
2019-10-02 02:40:01+00:00,1569984001,18.997,32458.54,23.24,23.83,,,,,10.46,129.47,10.058,0.14089,,,,
2019-10-02 03:00:01+00:00,1569985201,18.756,32773.09,23.63,24.19,,,,,9.13,112.68,10.375,0.1453,,,,
2019-10-02 03:20:01+00:00,1569986401,18.584,34608.3,25.2,25.64,,,,,8.22,101.93,10.519,0.14733,,,,
2019-10-02 03:40:02+00:00,1569987602,18.459,32791.67,23.81,24.36,,,,,7.76,95.33,11.088,0.15531,,,,
2019-10-02 04:00:02+00:00,1569988802,18.326,31869.61,23.15,23.74,,,,,7.16,87.36,11.29,0.15813,,,,
2019-10-02 04:20:02+00:00,1569990002,18.159,33634.14,24.67,25.15,,,,,6.66,81.78,13.572,0.19009,,,,
2019-10-02 04:40:01+00:00,1569991201,18.123,31057.67,22.61,23.24,,,,,4.66,56.5,14.267,0.19983,,,,
2019-10-02 05:00:01+00:00,1569992401,18.001,31316.12,22.89,23.5,,,,,4.7,56.99,15.17,0.21247,,,,
2019-10-02 05:20:01+00:00,1569993601,17.956,33364.68,24.57,25.06,,,,,3.58,43.74,16.162,0.22635,,,,
2019-10-02 05:40:01+00:00,1569994801,17.778,30174.08,22.09,22.75,,,,,2.15,25.81,17.314,0.24252,,,,
2019-10-02 06:00:02+00:00,1569996002,17.693,35682.3,26.64,26.96,,,,,1.86,22.95,16.075,0.22514,,,,
2019-10-02 06:20:02+00:00,1569997202,17.731,35059.53,26.1,26.46,,,,,2.76,33.89,16.295,0.22823,,,,
2019-10-02 06:40:01+00:00,1569998401,17.699,34571.97,25.72,26.11,,,,,2.83,34.72,17.157,0.24033,,,,
2019-10-02 07:00:01+00:00,1569999601,17.627,34692.25,25.86,26.25,,,,,2.73,33.41,15.666,0.21941,,,,
2019-10-02 07:20:01+00:00,1570000801,17.538,34670.56,25.9,26.28,,,,,2.97,36.36,14.989,0.20995,,,,
2019-10-02 07:40:01+00:00,1570002001,17.453,34514.7,25.83,26.21,,,,,2.41,29.43,13.809,0.19343,,,,
2019-10-02 08:00:02+00:00,1570003202,17.383,34289.08,25.68,26.08,,,,,2.56,31.12,13.58,0.19022,,,,
2019-10-02 08:20:02+00:00,1570004402,17.219,33720.68,25.31,25.74,,,,,2.87,34.72,14.017,0.19632,,,,
2019-10-02 08:40:02+00:00,1570005602,17.129,33542.91,25.22,25.66,,,,,1.73,20.91,13.921,0.19498,,,,
2019-10-02 09:00:02+00:00,1570006802,17.031,30050.39,22.39,23.04,,,,,0.78,9.2,13.769,0.19287,,,,
2019-10-02 09:20:02+00:00,1570008002,16.938,31491.22,23.63,24.19,,,,,0.77,9.12,11.361,0.15911,,,,
2019-10-02 09:40:02+00:00,1570009202,16.873,31440.26,23.63,24.19,,,,,0.66,7.86,12.611,0.17665,,,,
2019-10-02 10:00:02+00:00,1570010402,16.813,31448.29,23.67,24.23,,,,,1.19,14.19,13.093,0.18338,,,,
2019-10-02 10:20:02+00:00,1570011602,16.734,32163.77,24.32,24.83,,,,,1.08,12.84,13.553,0.18981,,,,
2019-10-02 10:40:01+00:00,1570012801,16.633,30055.38,22.62,23.25,,,,,0.58,6.86,13.987,0.1959,,,,
2019-10-02 11:00:02+00:00,1570014002,16.525,33286.56,25.39,25.82,,,,,1.03,12.3,11.583,0.16223,,,,
2019-10-02 11:20:01+00:00,1570015201,16.405,31054.97,23.58,24.15,,,,,1.12,13.17,10.831,0.15173,,,,
2019-10-02 11:40:01+00:00,1570016401,16.304,29933.43,22.7,23.33,,,,,1.47,17.23,10.832,0.15171,,,,
2019-10-02 12:00:01+00:00,1570017601,16.224,30221.47,22.99,23.6,,,,,1.2,14,11.348,0.15895,,,,
2019-10-02 12:20:02+00:00,1570018802,16.157,30137.32,22.96,23.57,,,,,0.57,6.67,10.817,0.15149,,,,
2019-10-02 12:40:01+00:00,1570020001,16.028,30057.63,22.97,23.58,,,,,0.52,6.03,10.933,0.15314,,,,
2019-10-02 13:00:01+00:00,1570021201,15.948,29757.51,22.76,23.39,,,,,0.5,5.86,10.685,0.14964,,,,
2019-10-02 13:20:01+00:00,1570022401,15.867,29828.43,22.86,23.49,,,,,0.5,5.75,11.872,0.16629,,,,
2019-10-02 13:40:01+00:00,1570023601,15.782,29789.77,22.88,23.5,,,,,0.49,5.69,11.297,0.15822,,,,
2019-10-02 14:00:01+00:00,1570024801,15.689,30036.29,23.14,23.75,,,,,0.48,5.6,10.665,0.14939,,,,
2019-10-02 14:20:01+00:00,1570026001,15.592,29934.01,23.11,23.72,,,,,0.48,5.55,10.295,0.14418,,,,
2019-10-02 14:40:01+00:00,1570027201,15.532,31524.56,24.51,25.01,,,,,0.47,5.45,11.826,0.16562,,,,
2019-10-02 15:00:02+00:00,1570028402,15.507,31538.52,24.54,25.04,,,,,0.46,5.37,11.05,0.15475,,,,
2019-10-02 15:20:01+00:00,1570029601,15.413,31484.7,24.55,25.05,,,,,0.47,5.42,10.248,0.14355,,,,
2019-10-02 15:40:01+00:00,1570030801,15.303,31486.96,24.62,25.12,,,,,0.47,5.42,11.033,0.15453,,,,
2019-10-02 16:00:02+00:00,1570032002,15.183,29943.41,23.36,23.95,,,,,0.48,5.49,10.957,0.15347,,,,
2019-10-02 16:20:02+00:00,1570033202,15.148,30290.35,23.68,24.25,,,,,0.48,5.51,10.791,0.15113,,,,
2019-10-02 16:40:02+00:00,1570034402,15.2,30233.48,23.6,24.18,,,,,0.48,5.48,10.128,0.14183,,,,
2019-10-02 17:00:02+00:00,1570035602,15.206,31731.23,24.89,25.37,,,,,0.52,5.99,12.951,0.18139,,,,
2019-10-02 17:20:02+00:00,1570036802,15.282,31817.16,24.92,25.39,,,,,0.49,5.75,10.852,0.152,,,,
2019-10-02 17:40:02+00:00,1570038002,15.664,31807.54,24.67,25.16,,,,,0.5,5.84,9.672,0.13546,,,,
2019-10-02 18:00:01+00:00,1570039201,16.564,32191.27,24.44,24.94,,,,,1.34,15.9,12.035,0.16857,,,,
2019-10-02 18:20:01+00:00,1570040401,17.112,33548.13,25.24,25.67,,,,,3.16,38.2,12.975,0.18175,,,,
2019-10-02 18:40:01+00:00,1570041601,17.393,31077.73,23.03,23.63,,,,,5.28,63.27,12.558,0.17589,,,,
2019-10-02 19:00:01+00:00,1570042801,17.869,30415.87,22.23,22.89,,,,,5.9,71.06,14.15,0.19819,,,,
2019-10-02 19:20:01+00:00,1570044001,18.098,34140.7,25.12,25.56,,,,,7.63,93.9,12.711,0.17804,,,,
2019-10-02 19:40:02+00:00,1570045202,18.507,34539.72,25.19,25.63,,,,,8.89,110.31,12.742,0.17849,,,,
2019-10-02 20:00:02+00:00,1570046402,18.966,32642.92,23.41,23.98,,,,,10.29,127.42,12.551,0.17576,,,,
2019-10-02 20:20:02+00:00,1570047602,19.333,32231.18,22.88,23.49,,,,,11.12,138.2,13.639,0.19102,,,,
2019-10-02 20:40:02+00:00,1570048802,19.719,32921.02,23.2,23.8,,,,,11.86,148.83,13.483,0.18885,,,,
2019-10-02 21:00:01+00:00,1570050001,19.95,32777.22,22.97,23.58,,,,,12.04,151.43,14.017,0.19633,,,,
2019-10-02 21:20:01+00:00,1570051201,20.33,36535.63,25.67,26.07,,,,,12.03,154.91,14.102,0.19751,,,,
2019-10-02 21:40:01+00:00,1570052401,20.523,36644.62,25.64,26.05,,,,,12.54,162,14.498,0.20306,,,,
2019-10-02 22:00:01+00:00,1570053601,20.757,38193.77,26.69,27.02,,,,,12.57,164.07,14.487,0.20289,,,,
2019-10-02 22:20:01+00:00,1570054801,20.788,33445.75,23.03,23.64,,,,,12.8,163.63,14.788,0.20714,,,,
2019-10-02 22:40:01+00:00,1570056001,21.183,33977.27,23.22,23.82,,,,,12.77,164.6,13.499,0.18908,,,,
2019-10-02 23:00:01+00:00,1570057201,21.214,34426.46,23.54,24.12,,,,,13.17,170.23,14.409,0.20184,,,,
2019-10-02 23:20:01+00:00,1570058401,21.071,33072.96,22.59,23.24,,,,,12.56,161.05,14.827,0.20767,,,,
2019-10-02 23:40:01+00:00,1570059601,20.951,33797.69,23.21,23.81,,,,,12.2,156.57,15.144,0.21214,,,,
2019-10-03 00:00:02+00:00,1570060802,20.863,33050.06,22.69,23.33,,,,,11.63,148.64,15.856,0.22211,,,,
2019-10-03 00:20:01+00:00,1570062001,20.766,36139.45,25.1,25.56,,,,,11.49,148.56,16.879,0.23639,,,,
2019-10-03 00:40:01+00:00,1570063201,20.608,35940.52,25.04,25.5,,,,,11.28,145.42,16.407,0.22983,,,,
2019-10-03 01:00:02+00:00,1570064402,20.392,36007.32,25.22,25.66,,,,,10.93,140.53,14.882,0.20843,,,,
2019-10-03 01:20:02+00:00,1570065602,20.38,35609.25,24.92,25.39,,,,,9.52,122.16,15.915,0.22293,,,,
2019-10-03 01:40:02+00:00,1570066802,20.228,34640.42,24.25,24.77,,,,,8.47,107.95,16.609,0.23262,,,,
2019-10-03 02:00:01+00:00,1570068001,20.124,33338.4,23.31,23.9,,,,,8.79,111.12,17.265,0.24183,,,,
2019-10-03 02:20:01+00:00,1570069201,19.741,33620.08,23.74,24.29,,,,,11.03,138.8,11.401,0.15971,,,,
2019-10-03 02:40:01+00:00,1570070401,19.256,35750.41,25.7,26.1,,,,,10.96,138.32,10.743,0.15045,,,,
2019-10-03 03:00:01+00:00,1570071601,19.072,35273.92,25.44,25.86,,,,,11.11,139.47,10.667,0.14943,,,,
2019-10-03 03:20:02+00:00,1570072802,18.846,35398.98,25.67,26.07,,,,,10.06,125.96,11.034,0.15454,,,,
2019-10-03 03:40:02+00:00,1570074002,18.593,35738.01,26.11,26.47,,,,,8.85,110.59,11.279,0.15799,,,,
2019-10-03 04:00:02+00:00,1570075202,18.345,35551.5,26.11,26.47,,,,,7.93,98.56,11.531,0.16148,,,,
2019-10-03 04:20:02+00:00,1570076402,18.185,35801.9,26.42,26.75,,,,,7.45,92.5,16.538,0.23164,,,,
2019-10-03 04:40:02+00:00,1570077602,,,,,,,,,,,11.689,0.16373,,,,
2019-10-03 05:00:01+00:00,1570078801,17.937,35696.2,26.49,26.82,,,,,6.52,80.55,12.713,0.17808,,,,
2019-10-03 05:20:01+00:00,1570080001,17.815,35120.79,26.1,26.46,,,,,3.95,48.62,13.469,0.18864,,,,
2019-10-03 05:40:01+00:00,1570081201,17.746,34654.49,25.76,26.15,,,,,2.12,25.95,14.165,0.19842,,,,
2019-10-03 06:00:02+00:00,1570082402,17.509,34597.66,25.86,26.24,,,,,1.35,16.52,15.561,0.21797,,,,
2019-10-03 06:20:02+00:00,1570083602,17.282,34686.16,26.08,26.44,,,,,0.88,10.75,18.267,0.25585,,,,
2019-10-03 06:40:01+00:00,1570084801,17.145,31662.85,23.66,24.21,,,,,0.66,7.89,18,0.2521,,,,
2019-10-03 07:00:01+00:00,1570086001,,,,,,,,,,,10.788,0.15109,,,,
2019-10-03 07:20:02+00:00,1570087202,,,,,,,,,,,16.446,0.23037,,,,
2019-10-03 07:40:02+00:00,1570088402,16.849,32703.42,24.7,25.18,,,,,0.99,11.84,17.525,0.24546,,,,
2019-10-03 08:00:02+00:00,1570089602,16.58,32243.35,24.48,24.97,,,,,0.79,9.45,14.616,0.20473,,,,
2019-10-03 08:20:01+00:00,1570090801,16.469,32289.86,24.58,25.07,,,,,1.71,20.29,15.529,0.21749,,,,
2019-10-03 08:40:01+00:00,1570092001,16.526,32232.07,24.5,25,,,,,1.17,13.96,15.022,0.21042,,,,
2019-10-03 09:00:01+00:00,1570093201,16.551,32260.99,24.51,25,,,,,1.84,21.93,15.503,0.21714,,,,
2019-10-03 09:20:01+00:00,1570094401,16.643,32629.93,24.76,25.24,,,,,1.71,20.42,15.624,0.21883,,,,
2019-10-03 09:40:01+00:00,1570095601,16.646,32524.03,24.67,25.15,,,,,0.95,11.28,15.357,0.21509,,,,
2019-10-03 10:00:01+00:00,1570096801,16.471,32666.63,24.9,25.37,,,,,1.24,14.72,15.492,0.21698,,,,
2019-10-03 10:20:02+00:00,1570098002,16.453,34833.38,26.74,27.06,,,,,1.53,18.34,13.86,0.19414,,,,
2019-10-03 10:40:02+00:00,1570099202,16.471,32554.07,24.8,25.28,,,,,0.89,10.63,14.467,0.20266,,,,
2019-10-03 11:00:02+00:00,1570100402,16.545,33056.2,25.18,25.62,,,,,1.54,18.39,14.365,0.20121,,,,
2019-10-03 11:20:02+00:00,1570101602,16.396,33126.04,25.33,25.77,,,,,1.07,12.74,14.782,0.20704,,,,
2019-10-03 11:40:02+00:00,1570102802,16.264,32276.2,24.7,25.18,,,,,1.02,12.11,14.479,0.20282,,,,
2019-10-03 12:00:02+00:00,1570104002,16.102,32711.2,25.17,25.62,,,,,1.15,13.57,14.377,0.20137,,,,
2019-10-03 12:20:02+00:00,1570105202,15.98,32407.5,24.99,25.45,,,,,1.1,13.01,14.79,0.20716,,,,
2019-10-03 12:40:02+00:00,1570106402,15.87,32055.95,24.75,25.24,,,,,1.03,12.15,13.489,0.18896,,,,
2019-10-03 13:00:01+00:00,1570107601,15.794,32500.36,25.18,25.63,,,,,0.87,10.25,14.13,0.1979,,,,
2019-10-03 13:20:01+00:00,1570108801,15.715,32336.45,25.09,25.55,,,,,0.58,6.86,13.968,0.19565,,,,
2019-10-03 13:40:01+00:00,1570110001,15.624,32791.34,25.54,25.96,,,,,0.54,6.31,13.444,0.18831,,,,
2019-10-03 14:00:01+00:00,1570111201,15.518,32504.01,25.36,25.8,,,,,0.5,5.87,13.232,0.18533,,,,
2019-10-03 14:20:01+00:00,1570112401,15.447,32172.92,25.12,25.58,,,,,0.5,5.83,13.62,0.19079,,,,
2019-10-03 14:40:01+00:00,1570113601,15.375,32856.38,25.76,26.17,,,,,0.61,7.13,12.204,0.17095,,,,
2019-10-03 15:00:01+00:00,1570114801,15.279,32460.09,25.48,25.91,,,,,0.55,6.46,12.38,0.17339,,,,
2019-10-03 15:20:01+00:00,1570116001,15.231,31878.71,25,25.47,,,,,0.49,5.72,12.917,0.18093,,,,
2019-10-03 15:40:01+00:00,1570117201,15.165,32539.58,25.62,26.04,,,,,0.5,5.77,13.586,0.1903,,,,
2019-10-03 16:00:01+00:00,1570118401,15.14,31943.74,25.12,25.58,,,,,0.5,5.75,13.279,0.18597,,,,
2019-10-03 16:20:01+00:00,1570119601,15.082,33156.86,26.21,26.59,,,,,0.55,6.37,13.818,0.19357,,,,
2019-10-03 16:40:01+00:00,1570120801,15.076,32546.45,25.68,26.1,,,,,0.64,7.47,13.334,0.1868,,,,
2019-10-03 17:00:01+00:00,1570122001,15.207,32627.59,25.67,26.09,,,,,0.66,7.67,13.455,0.18846,,,,
2019-10-03 17:20:02+00:00,1570123202,15.309,34448.5,27.19,27.48,,,,,0.67,7.86,12.781,0.17902,,,,
2019-10-03 17:40:02+00:00,1570124402,15.534,33483.16,26.2,26.57,,,,,0.51,6.01,13.058,0.18291,,,,
2019-10-03 18:00:02+00:00,1570125602,16.46,33563.4,25.66,26.07,,,,,2.62,31.31,13.192,0.18478,,,,
2019-10-03 18:20:02+00:00,1570126802,,,,,,,,,,,14.575,0.20416,,,,
2019-10-03 18:40:02+00:00,1570128002,17.725,36592.93,27.37,27.62,,,,,5.68,70.34,13.558,0.1899,,,,
2019-10-03 19:00:02+00:00,1570129202,18.252,35467.04,26.1,26.46,,,,,6.67,82.72,13.752,0.19263,,,,
2019-10-03 19:20:02+00:00,1570130402,18.392,34661.37,25.36,25.78,,,,,7.13,88.32,14.701,0.20593,,,,
2019-10-03 19:40:02+00:00,1570131602,18.552,35353.55,25.82,26.21,,,,,7.45,92.84,15.112,0.21165,,,,
2019-10-03 20:00:02+00:00,1570132802,18.955,36597.59,26.57,26.89,,,,,8.4,105.9,16.407,0.22981,,,,
2019-10-03 20:20:02+00:00,1570134002,19.313,36270.41,26.08,26.45,,,,,9.31,117.83,17.586,0.2463,,,,
2019-10-03 20:40:02+00:00,1570135202,19.848,36458.1,25.9,26.28,,,,,10.78,137.75,18.156,0.25432,,,,
2019-10-03 21:00:02+00:00,1570136402,20.098,36559.54,25.83,26.22,,,,,11.21,143.82,18.54,0.2597,,,,
2019-10-03 21:20:01+00:00,1570137601,20.611,37113.38,25.95,26.33,,,,,11.74,152.16,18.17,0.25448,,,,
2019-10-03 21:40:01+00:00,1570138801,20.851,37101.53,25.79,26.19,,,,,12.17,158.28,18.255,0.25571,,,,
2019-10-03 22:00:01+00:00,1570140001,21.315,37530.15,25.84,26.24,,,,,11.86,155.67,17.87,0.25029,,,,
2019-10-03 22:20:01+00:00,1570141201,21.384,37410.98,25.71,26.12,,,,,11.64,152.78,18.058,0.25293,,,,
2019-10-03 22:40:01+00:00,1570142401,21.559,37434.47,25.62,26.04,,,,,11.16,146.96,18.354,0.25707,,,,
2019-10-03 23:00:01+00:00,1570143601,21.511,37115.26,25.41,25.85,,,,,11.22,147.4,18.606,0.26059,,,,
2019-10-03 23:20:02+00:00,1570144802,21.508,36824.62,25.19,25.65,,,,,11.31,148.37,18.157,0.25432,,,,
2019-10-03 23:40:02+00:00,1570146002,21.488,33180.58,22.46,23.12,,,,,11.13,143.72,18.426,0.25809,,,,
2019-10-04 00:00:02+00:00,1570147202,21.22,33096.62,22.53,23.19,,,,,10.8,138.78,18.486,0.25893,,,,
2019-10-04 00:20:01+00:00,1570148401,20.889,32946.36,22.59,23.24,,,,,10.53,134.48,19.62,0.2748,,,,
2019-10-04 00:40:02+00:00,1570149602,20.839,32769.49,22.49,23.14,,,,,10.01,127.7,19.22,0.26924,,,,
2019-10-04 01:00:02+00:00,1570150802,20.373,32118.05,22.24,22.9,,,,,10.5,132.64,21.082,0.29527,,,,
2019-10-04 01:20:02+00:00,1570152002,20.054,31790.47,22.15,22.82,,,,,10.54,132.27,21.556,0.30195,,,,
2019-10-04 01:40:02+00:00,1570153202,19.53,31303.8,22.05,22.72,,,,,9.72,120.64,18.785,0.26313,,,,
2019-10-04 02:00:02+00:00,1570154402,19.332,31243.97,22.11,22.77,,,,,9.84,121.78,20.6,0.28854,,,,
2019-10-04 02:20:01+00:00,1570155601,19.039,31070.46,22.13,22.79,,,,,9.22,113.44,19.268,0.26987,,,,
2019-10-04 02:40:01+00:00,1570156801,18.983,31442.36,22.45,23.09,,,,,8.72,107.34,20.868,0.2923,,,,
2019-10-04 03:00:01+00:00,1570158001,18.731,31066.49,22.29,22.94,,,,,8.42,103.13,21.196,0.29689,,,,
2019-10-04 03:20:01+00:00,1570159201,18.409,30729.58,22.19,22.85,,,,,8.51,103.54,21.744,0.30455,,,,
2019-10-04 03:40:01+00:00,1570160401,19.186,32428.51,23.11,23.71,,,,,7.69,95.42,15.054,0.21087,,,,
2019-10-04 04:00:01+00:00,1570161601,18.523,31438.22,22.69,23.32,,,,,7.68,93.92,11.29,0.15815,,,,
2019-10-04 04:20:01+00:00,1570162801,18.333,32988.5,24.04,24.57,,,,,8.15,100.1,11.847,0.16593,,,,
2019-10-04 04:40:01+00:00,1570164001,18.199,33197.16,24.29,24.8,,,,,7.84,96.18,12.172,0.17049,,,,
2019-10-04 05:00:01+00:00,1570165201,17.999,33072.31,24.31,24.82,,,,,7.02,85.74,10.985,0.15385,,,,
2019-10-04 05:20:01+00:00,1570166401,17.799,32578.61,24.02,24.55,,,,,6.38,77.52,11.919,0.16695,,,,
2019-10-04 05:40:01+00:00,1570167601,17.643,33323.34,24.73,25.2,,,,,5.75,69.91,12.516,0.17533,,,,
2019-10-04 06:00:02+00:00,1570168802,17.462,35315.3,26.48,26.82,,,,,4.89,59.88,13.693,0.19179,,,,
2019-10-04 06:20:02+00:00,1570170002,17.416,33872.45,25.32,25.75,,,,,3.08,37.45,15.221,0.21319,,,,
2019-10-04 06:40:01+00:00,1570171201,17.237,32422.05,24.23,24.74,,,,,1.16,13.97,17.098,0.2395,,,,
2019-10-04 07:00:01+00:00,1570172401,17.142,33662.5,25.31,25.74,,,,,0.73,8.78,16.577,0.23219,,,,
2019-10-04 07:20:01+00:00,1570173601,16.823,31972.23,24.1,24.63,,,,,0.7,8.35,18.264,0.2558,,,,
2019-10-04 07:40:01+00:00,1570174801,16.64,33227.92,25.26,25.7,,,,,1.02,12.17,16.034,0.2246,,,,
2019-10-04 08:00:01+00:00,1570176001,16.637,33088.56,25.15,25.6,,,,,1.14,13.58,15.232,0.21335,,,,
2019-10-04 08:20:01+00:00,1570177201,16.493,33351.77,25.46,25.88,,,,,0.78,9.32,16.384,0.22948,,,,